Fecha;EUA;CER;SPREAD (EUA - CER)
04-01-2010;12.80;11.62;"1,18"
05-01-2010;12.45;11.30;"1,15"
06-01-2010;12.17;10.95;"1,22"
07-01-2010;12.43;11.02;"1,41"
08-01-2010;12.75;11.47;"1,28"
11-01-2010;12.95;11.61;"1,34"
12-01-2010;12.70;11.34;"1,36"
13-01-2010;12.94;11.62;"1,32"
14-01-2010;13.50;12.22;"1,28"
15-01-2010;13.12;11.63;"1,49"
18-01-2010;13.40;11.94;"1,46"
19-01-2010;13.58;12.04;"1,54"
20-01-2010;13.13;11.81;"1,32"
21-01-2010;13.16;11.86;"1,3"
22-01-2010;12.92;11.75;"1,17"
25-01-2010;13.21;11.89;"1,32"
26-01-2010;13.42;12.25;"1,17"
27-01-2010;13.28;12.20;"1,08"
28-01-2010;12.94;11.90;"1,04"
29-01-2010;12.70;11.70;1
01-02-2010;12.55;11.60;"0,95"
02-02-2010;12.44;11.37;"1,07"
03-02-2010;12.60;11.55;"1,05"
04-02-2010;13.05;11.83;"1,22"
05-02-2010;13.08;11.95;"1,13"
08-02-2010;13.60;12.30;"1,3"
09-02-2010;13.37;12.23;"1,14"
10-02-2010;13.06;11.77;"1,29"
11-02-2010;13.02;11.86;"1,16"
12-02-2010;12.81;11.61;"1,2"
15-02-2010;12.98;11.75;"1,23"
16-02-2010;13.15;11.97;"1,18"
17-02-2010;12.80;11.72;"1,08"
18-02-2010;12.80;11.57;"1,23"
19-02-2010;12.42;11.40;"1,02"
22-02-2010;12.60;11.31;"1,29"
23-02-2010;12.65;11.50;"1,15"
24-02-2010;12.82;11.78;"1,04"
25-02-2010;12.76;11.57;"1,19"
26-02-2010;12.79;11.83;"0,96"
01-03-2010;13.15;12.30;"0,85"
02-03-2010;13.10;12.00;"1,1"
03-03-2010;13.30;12.50;"0,8"
04-03-2010;12.99;11.92;"1,07"
05-03-2010;13.10;12.06;"1,04"
08-03-2010;12.95;12.05;"0,9"
09-03-2010;12.98;11.97;"1,01"
10-03-2010;13.05;12.10;"0,95"
11-03-2010;12.86;11.92;"0,94"
12-03-2010;12.75;11.68;"1,07"
15-03-2010;12.88;11.60;"1,28"
16-03-2010;12.85;11.30;"1,55"
17-03-2010;12.85;11.60;"1,25"
18-03-2010;12.92;11.80;"1,12"
19-03-2010;12.96;11.88;"1,08"
22-03-2010;12.94;11.75;"1,19"
23-03-2010;12.80;11.62;"1,18"
24-03-2010;12.62;11.50;"1,12"
25-03-2010;12.48;11.42;"1,06"
26-03-2010;12.69;11.74;"0,95"
29-03-2010;12.58;11.71;"0,87"
30-03-2010;12.66;11.74;"0,92"
31-03-2010;12.46;11.53;"0,93"
01-04-2010;12.89;11.60;"1,29"
06-04-2010;13.27;12.20;"1,07"
07-04-2010;13.33;12.15;"1,18"
08-04-2010;13.37;12.25;"1,12"
09-04-2010;13.48;12.29;"1,19"
12-04-2010;13.47;12.54;"0,93"
13-04-2010;13.48;12.35;"1,13"
14-04-2010;14.05;12.93;"1,12"
15-04-2010;13.96;12.57;"1,39"
16-04-2010;14.23;12.96;"1,27"
19-04-2010;14.45;13.30;"1,15"
20-04-2010;14.55;13.45;"1,1"
21-04-2010;14.53;13.41;"1,12"
22-04-2010;14.70;13.62;"1,08"
23-04-2010;14.79;13.58;"1,21"
26-04-2010;15.39;14.10;"1,29"
27-04-2010;15.06;14.02;"1,04"
28-04-2010;14.82;13.71;"1,11"
29-04-2010;15.12;13.97;"1,15"
30-04-2010;15.75;14.28;"1,47"
03-05-2010;16.25;14.55;"1,7"
04-05-2010;15.65;14.04;"1,61"
05-05-2010;15.80;14.03;"1,77"
06-05-2010;15.99;14.15;"1,84"
07-05-2010;15.42;13.66;"1,76"
10-05-2010;15.14;13.33;"1,81"
11-05-2010;15.49;13.83;"1,66"
12-05-2010;15.49;13.65;"1,84"
13-05-2010;15.60;13.83;"1,77"
14-05-2010;15.60;13.51;"2,09"
17-05-2010;14.92;13.05;"1,87"
18-05-2010;15.02;13.08;"1,94"
19-05-2010;14.65;12.80;"1,85"
20-05-2010;14.45;12.35;"2,1"
21-05-2010;14.55;12.22;"2,33"
24-05-2010;15.15;12.68;"2,47"
25-05-2010;15.05;12.59;"2,46"
26-05-2010;15.47;13.07;"2,4"
27-05-2010;15.30;12.93;"2,37"
28-05-2010;14.93;12.83;"2,1"
31-05-2010;14.90;12.86;"2,04"
01-06-2010;14.95;12.60;"2,35"
02-06-2010;15.05;12.78;"2,27"
04-06-2010;15.15;12.92;"2,23"
07-06-2010;14.95;12.67;"2,28"
08-06-2010;15.46;13.23;"2,23"
09-06-2010;15.60;13.20;"2,4"
10-06-2010;15.32;12.86;"2,46"
11-06-2010;15.45;13.04;"2,41"
14-06-2010;15.75;13.15;"2,6"
15-06-2010;15.65;13.24;"2,41"
16-06-2010;15.45;13.11;"2,34"
17-06-2010;15.55;13.41;"2,14"
18-06-2010;15.57;13.38;"2,19"
21-06-2010;15.68;13.42;"2,26"
22-06-2010;15.22;13.09;"2,13"
23-06-2010;15.15;13.04;"2,11"
24-06-2010;15.10;13.25;"1,85"
25-06-2010;15.18;13.10;"2,08"
28-06-2010;15.32;13.23;"2,09"
29-06-2010;15.03;13.10;"1,93"
30-06-2010;15.07;13.04;"2,03"
01-07-2010;15.03;13.05;"1,98"
02-07-2010;15.10;13.09;"2,01"
05-07-2010;15.22;13.05;"2,17"
06-07-2010;15.10;13.02;"2,08"
07-07-2010;14.76;12.64;"2,12"
08-07-2010;14.29;12.62;"1,67"
09-07-2010;14.56;12.53;"2,03"
12-07-2010;14.00;11.89;"2,11"
13-07-2010;13.78;11.98;"1,8"
14-07-2010;13.88;11.91;"1,97"
15-07-2010;13.82;12.18;"1,64"
16-07-2010;14.15;12.29;"1,86"
19-07-2010;14.45;12.37;"2,08"
20-07-2010;14.12;12.15;"1,97"
21-07-2010;13.80;12.05;"1,75"
22-07-2010;14.15;12.30;"1,85"
23-07-2010;13.92;12.00;"1,92"
26-07-2010;13.50;11.80;"1,7"
27-07-2010;13.58;11.63;"1,95"
28-07-2010;13.61;11.70;"1,91"
29-07-2010;13.90;11.98;"1,92"
30-07-2010;14.03;12.05;"1,98"
02-08-2010;14.30;12.35;"1,95"
03-08-2010;14.35;12.40;"1,95"
04-08-2010;14.28;12.25;"2,03"
05-08-2010;14.25;12.30;"1,95"
06-08-2010;14.15;12.18;"1,97"
09-08-2010;14.44;12.35;"2,09"
10-08-2010;14.40;12.30;"2,1"
11-08-2010;14.39;12.32;"2,07"
12-08-2010;14.32;12.25;"2,07"
13-08-2010;14.40;12.30;"2,1"
16-08-2010;14.33;12.34;"1,99"
17-08-2010;14.38;12.65;"1,73"
18-08-2010;14.28;12.61;"1,67"
19-08-2010;14.72;13.38;"1,34"
20-08-2010;14.94;13.39;"1,55"
23-08-2010;14.68;13.28;"1,4"
24-08-2010;14.77;13.28;"1,49"
25-08-2010;15.28;13.66;"1,62"
26-08-2010;15.15;13.50;"1,65"
27-08-2010;15.18;13.52;"1,66"
30-08-2010;15.28;13.57;"1,71"
31-08-2010;15.11;13.48;"1,63"
01-09-2010;15.25;13.60;"1,65"
02-09-2010;15.65;13.92;"1,73"
03-09-2010;15.70;14.00;"1,7"
06-09-2010;15.60;13.80;"1,8"
07-09-2010;15.62;14.12;"1,5"
08-09-2010;15.55;13.80;"1,75"
09-09-2010;15.42;13.86;"1,56"
10-09-2010;15.15;13.75;"1,4"
13-09-2010;15.20;13.87;"1,33"
14-09-2010;15.17;13.61;"1,56"
15-09-2010;15.36;13.76;"1,6"
16-09-2010;15.18;13.65;"1,53"
17-09-2010;15.20;13.60;"1,6"
20-09-2010;14.99;13.50;"1,49"
21-09-2010;14.88;13.50;"1,38"
22-09-2010;14.97;13.48;"1,49"
23-09-2010;14.78;13.20;"1,58"
24-09-2010;15.20;13.45;"1,75"
27-09-2010;15.30;13.58;"1,72"
28-09-2010;15.55;13.93;"1,62"
29-09-2010;15.55;14.23;"1,32"
30-09-2010;15.32;13.89;"1,43"
01-10-2010;15.25;13.45;"1,8"
04-10-2010;15.22;13.68;"1,54"
05-10-2010;15.37;13.70;"1,67"
06-10-2010;15.42;13.79;"1,63"
07-10-2010;15.37;13.85;"1,52"
08-10-2010;15.50;13.83;"1,67"
11-10-2010;15.73;14.12;"1,61"
12-10-2010;15.63;13.98;"1,65"
13-10-2010;15.65;13.98;"1,67"
14-10-2010;15.47;13.70;"1,77"
15-10-2010;15.37;13.65;"1,72"
18-10-2010;15.40;13.50;"1,9"
19-10-2010;15.01;13.05;"1,96"
20-10-2010;15.17;13.26;"1,91"
21-10-2010;14.85;13.07;"1,78"
22-10-2010;14.90;13.20;"1,7"
25-10-2010;15.06;13.20;"1,86"
26-10-2010;15.00;12.98;"2,02"
27-10-2010;14.99;13.07;"1,92"
28-10-2010;14.90;12.85;"2,05"
29-10-2010;14.60;12.62;"1,98"
02-11-2010;14.66;12.70;"1,96"
03-11-2010;14.68;12.58;"2,1"
04-11-2010;14.40;12.12;"2,28"
05-11-2010;14.51;12.33;"2,18"
08-11-2010;14.21;12.23;"1,98"
09-11-2010;14.27;12.18;"2,09"
10-11-2010;14.50;12.37;"2,13"
11-11-2010;14.81;12.53;"2,28"
12-11-2010;14.82;12.57;"2,25"
15-11-2010;15.06;12.60;"2,46"
16-11-2010;14.65;12.08;"2,57"
17-11-2010;14.84;12.37;"2,47"
18-11-2010;14.90;12.35;"2,55"
19-11-2010;15.00;12.36;"2,64"
22-11-2010;15.04;12.62;"2,42"
23-11-2010;14.98;12.49;"2,49"
24-11-2010;15.09;12.55;"2,54"
25-11-2010;15.08;12.45;"2,63"
26-11-2010;15.06;12.31;"2,75"
29-11-2010;14.92;11.93;"2,99"
30-11-2010;14.57;11.80;"2,77"
01-12-2010;14.69;11.90;"2,79"
02-12-2010;14.72;11.75;"2,97"
03-12-2010;14.77;11.75;"3,02"
07-12-2010;14.75;11.70;"3,05"
09-12-2010;14.47;11.49;"2,98"
10-12-2010;14.53;11.78;"2,75"
13-12-2010;14.50;11.79;"2,71"
14-12-2010;14.43;12.00;"2,43"
15-12-2010;14.29;12.00;"2,29"
16-12-2010;14.20;12.01;"2,19"
17-12-2010;13.95;11.93;"2,02"
20-12-2010;13.83;11.90;"1,93"
21-12-2010;13.86;11.94;"1,92"
22-12-2010;13.91;12.05;"1,86"
23-12-2010;13.67;11.84;"1,83"
24-12-2010;13.75;11.84;"1,91"
27-12-2010;13.70;11.85;"1,85"
28-12-2010;13.76;12.25;"1,51"
29-12-2010;13.80;12.07;"1,73"
30-12-2010;13.72;12.20;"1,52"
